Change the Weather History Date:

Sunday, March 18, 2012

  Actual Average Record
Temperature  
Mean Temperature 65 °F 43 °F  
Max Temperature 82 °F 60 °F 90 °F (1921)
Min Temperature 48 °F 27 °F -4 °F (1924)
Degree Days  
Heating Degree Days 0 22  
Month to date heating degree days 315 444  
Since 1 July heating degree days 4493 4755  
Cooling Degree Days 0 0  
Month to date cooling degree days 0 0  
Year to date cooling degree days 0 0  
Growing Degree Days 16 (Base 50)    
Moisture  
Dew Point 16 °F    
Average Humidity 19    
Maximum Humidity 29    
Minimum Humidity 9    
Precipitation  
Precipitation 0.00 in 0.03 in 1.49 in (1984)
Month to date precipitation 0.14 0.51  
Year to date precipitation 0.34 1.18  
Snow  
Snow 0.00 in - - ()
Month to date snowfall 0.0  
Snow Depth 0.00 in    
Sea Level Pressure  
Sea Level Pressure 29.42 in    
Wind  
Wind Speed 24 mph (SSW)    
Max Wind Speed 43 mph    
Max Gust Speed 54 mph    
Visibility 9 miles    
Events      
T = Trace of Precipitation, MM = Missing Value Source: NWS Daily Summary

Daily Weather History Graph

Daily Weather History Graph

Search for Another Location

Airport or City:

Trip Planner

Search our weather history database for the weather conditions in past years. The results will help you decide how hot, cold, wet, or windy it might be!

Date:

Astronomy

Mar. 18, 2012 Rise Set
Actual Time 6:56 AM MDT 7:01 PM MDT
Civil Twilight 6:30 AM MDT 7:27 PM MDT
Nautical Twilight 5:59 AM MDT 7:58 PM MDT
Astronomical Twilight 5:28 AM MDT 8:29 PM MDT
Moon 4:33 AM MDT (3/18) 3:33 PM MDT (3/18)
Length of Visible Light 12h 57m
Length of Day
12h 04m
Waning Crescent, 14% of the Moon is Illuminated
Mar 18
Waning Crescent
Mar 22
New
Mar 30
First Quarter
Apr 6
Full
Apr 13
Last Quarter

Hourly Weather History & Observations

Time (MDT) Temp. Dew Point Humidity Pressure Visibility Wind Dir Wind Speed Gust Speed Precip Events Conditions
12:53 AM 60.1 °F 8.1 °F 13% 29.47 in 10.0 mi SSW 20.7 mph - N/A   Clear
1:53 AM 55.9 °F 9.0 °F 15% 29.49 in 10.0 mi SSW 15.0 mph - N/A   Clear
3:53 AM 55.0 °F 10.9 °F 17% 29.47 in 10.0 mi SSW 16.1 mph - N/A   Clear
4:53 AM 50.0 °F 12.9 °F 23% 29.50 in 10.0 mi South 13.8 mph - N/A   Clear
5:53 AM 57.9 °F 12.0 °F 16% 29.48 in 10.0 mi South 19.6 mph - N/A   Clear
6:53 AM 55.9 °F 12.9 °F 18% 29.50 in 10.0 mi SSW 16.1 mph - N/A   Clear
7:53 AM 57.0 °F 15.1 °F 19% 29.52 in 10.0 mi South 16.1 mph - N/A   Clear
8:53 AM 70.0 °F 18.0 °F 14% 29.49 in 10.0 mi South 19.6 mph - N/A   Clear
9:53 AM 73.9 °F 19.0 °F 13% 29.49 in 10.0 mi South 25.3 mph 33.4 mph N/A   Clear
10:53 AM 77.0 °F 19.9 °F 12% 29.49 in 10.0 mi SSW 28.8 mph 34.5 mph N/A   Clear
11:53 AM 78.1 °F 19.9 °F 11% 29.43 in 10.0 mi South 20.7 mph 35.7 mph N/A   Clear
12:53 PM 79.0 °F 17.1 °F 10% 29.39 in 10.0 mi South 26.5 mph 48.3 mph N/A   Clear
2:53 PM 81.0 °F 16.0 °F 9% 29.31 in 10.0 mi South 36.8 mph 48.3 mph N/A   Clear
4:12 PM 77.0 °F 17.6 °F 11% 29.43 in 9.0 mi South 40.3 mph 49.5 mph N/A   Scattered Clouds
4:53 PM 75.9 °F 15.1 °F 10% 29.32 in 9.0 mi South 38.0 mph 50.6 mph N/A   Partly Cloudy
5:53 PM 75.0 °F 18.0 °F 12% 29.30 in 9.0 mi South 39.1 mph 48.3 mph N/A   Partly Cloudy
6:53 PM 72.0 °F 18.0 °F 13% 29.30 in 8.0 mi South 27.6 mph 44.9 mph N/A   Mostly Cloudy
7:48 PM 69.8 °F 19.4 °F 15% 29.42 in 8.0 mi South 27.6 mph 34.5 mph N/A   Overcast
7:53 PM 69.1 °F 19.0 °F 15% 29.31 in 8.0 mi South 24.2 mph 34.5 mph N/A   Overcast
8:53 PM 66.9 °F 18.0 °F 15% 29.32 in 6.0 mi South 24.2 mph 31.1 mph N/A   Haze
9:53 PM 68.0 °F 15.1 °F 13% 29.34 in 4.0 mi SSW 34.5 mph 44.9 mph N/A   Haze
11:09 PM 55.4 °F 24.8 °F 31% 29.53 in 10.0 mi West 20.7 mph - N/A   Mostly Cloudy
11:53 PM 53.1 °F 23.0 °F 31% 29.42 in 10.0 mi West 13.8 mph - N/A   Clear